CW3884 Weather Reports


Display with metric or nautical units.
time (UTC)temp
F
wind
direction
speed
MPH
gust
MPH
rain 1hr
in
rain 24hr
in
rain mn
in
humidity
%
barometer
mb
20190123041323 45 22 0.0 0.0 0.00 0.00 0.00 68 1030.0
20190123040829 45 22 0.0 0.0 0.00 0.00 0.00 67 1030.0
20190123040330 45 22 0.0 0.0 0.00 0.00 0.00 67 1029.9
20190123035837 45 22 0.0 0.0 0.00 0.00 0.00 67 1029.9
20190123035328 45 22 0.0 0.0 0.00 0.00 0.00 66 1029.9
20190123034836 46 22 0.0 0.0 0.00 0.00 0.00 67 1029.7
20190123034337 46 22 0.0 0.0 0.00 0.00 0.00 66 1029.7
20190123033823 46 22 0.0 0.0 0.00 0.00 0.00 65 1029.7
20190123033330 46 22 0.0 0.0 0.00 0.00 0.00 64 1029.5
20190123032828 46 22 0.0 0.0 0.00 0.00 0.00 64 1029.5
20190123032332 47 22 0.0 0.0 0.00 0.00 0.00 64 1029.5
20190123031823 47 22 0.0 0.0 0.00 0.00 0.00 63 1029.5
20190123031329 47 22 0.0 0.0 0.00 0.00 0.00 63 1029.5
20190123030835 48 22 0.0 0.0 0.00 0.00 0.00 62 1029.5
20190123030324 48 22 0.0 0.0 0.00 0.00 0.00 61 1029.4
20190123025832 49 22 0.0 0.0 0.00 0.00 0.00 60 1029.4
20190123025321 49 22 0.0 0.0 0.00 0.00 0.00 59 1029.4
20190123024825 49 22 0.0 0.0 0.00 0.00 0.00 57 1029.2
20190123024324 49 22 0.0 0.0 0.00 0.00 0.00 56 1029.2
20190123023834 49 22 0.0 0.0 0.00 0.00 0.00 55 1029.2
20190123023321 50 22 0.0 0.0 0.00 0.00 0.00 55 1029.3
20190123022830 50 22 0.0 0.0 0.00 0.00 0.00 55 1029.3
20190123022335 51 22 0.0 0.0 0.00 0.00 0.00 53 1029.3
20190123021824 51 22 0.0 0.0 0.00 0.00 0.00 51 1029.0
20190123021328 52 22 0.0 0.0 0.00 0.00 0.00 50 1029.0
20190123020832 52 22 0.0 0.0 0.00 0.00 0.00 50 1029.0
20190123020320 52 22 0.0 0.0 0.00 0.00 0.00 49 1028.9
20190123015827 53 22 0.0 0.0 0.00 0.00 0.00 48 1028.9
20190123015332 53 22 0.0 0.0 0.00 0.00 0.00 48 1028.9
20190123014821 54 22 0.0 0.0 0.00 0.00 0.00 47 1028.9
20190123014323 54 22 0.0 0.0 0.00 0.00 0.00 46 1028.9
20190123013832 54 22 0.0 0.0 0.00 0.00 0.00 46 1028.9
20190123013334 55 22 0.0 0.0 0.00 0.00 0.00 45 1028.8
20190123012821 55 22 0.0 0.0 0.00 0.00 0.00 45 1028.8
20190123012335 55 22 0.0 0.0 0.00 0.00 0.00 43 1028.8
20190123011820 56 22 0.0 0.0 0.00 0.00 0.00 44 1028.9
20190123011334 56 22 0.0 0.0 0.00 0.00 0.00 39 1028.9
20190123010820 57 22 0.0 0.0 0.00 0.00 0.00 39 1028.9
20190123010323 57 22 0.0 0.0 0.00 0.00 0.00 37 1029.0
20190123005830 58 22 0.0 0.0 0.00 0.00 0.00 36 1029.0
20190123005320 58 22 0.0 0.0 0.00 0.00 0.00 35 1029.0
20190123004828 58 22 0.0 1.0 0.00 0.00 0.00 36 1029.1
20190123004326 59 22 0.0 1.0 0.00 0.00 0.00 31 1029.1
20190123003834 59 22 0.0 0.0 0.00 0.00 0.00 34 1029.1
20190123003324 59 22 0.0 1.0 0.00 0.00 0.00 31 1029.2
20190123002829 59 22 0.0 1.0 0.00 0.00 0.00 31 1029.2
20190123002353 60 22 0.0 1.0 0.00 0.00 0.00 32 1029.2
20190123001439 60 22 0.0 4.0 0.00 0.00 0.00 29 1029.1
20190123000833 60 22 0.0 4.0 0.00 0.00 0.00 30 1029.1
20190123000320 60 343 0.0 3.0 0.00 0.00 0.00 30 1029.0
20190122235832 61 336 0.0 0.0 0.00 0.00 0.00 30 1029.0
20190122235339 60 336 0.0 0.0 0.00 0.00 0.00 31 1029.0
20190122234820 60 336 0.0 1.0 0.00 0.00 0.00 31 1028.9
20190122234325 60 336 0.0 1.0 0.00 0.00 0.00 30 1028.9
20190122233828 60 336 0.0 0.0 0.00 0.00 0.00 30 1028.9
20190122233336 60 336 0.0 4.0 0.00 0.00 0.00 29 1028.9
20190122232826 60 336 0.0 5.0 0.00 0.00 0.00 27 1028.9
20190122232329 61 334 0.0 5.0 0.00 0.00 0.00 27 1028.9
20190122231837 61 333 0.0 1.0 0.00 0.00 0.00 29 1028.8
20190122231330 61 333 0.0 1.0 0.00 0.00 0.00 28 1028.8
20190122230839 60 333 0.0 5.0 0.00 0.00 0.00 28 1028.8
20190122230322 61 333 1.0 5.0 0.00 0.00 0.00 27 1028.7
20190122225822 61 332 0.0 2.0 0.00 0.00 0.00 26 1028.7
20190122225330 60 329 0.0 2.0 0.00 0.00 0.00 27 1028.7
20190122224840 61 329 0.0 2.0 0.00 0.00 0.00 27 1028.7
20190122224334 61 329 0.0 1.0 0.00 0.00 0.00 28 1028.7
20190122223836 61 329 0.0 3.0 0.00 0.00 0.00 28 1028.7
20190122223323 61 329 1.0 3.0 0.00 0.00 0.00 27 1028.9
20190122222828 61 327 0.0 2.0 0.00 0.00 0.00 27 1028.9
20190122222333 61 324 0.0 0.0 0.00 0.00 0.00 27 1028.9
20190122221820 60 324 0.0 0.0 0.00 0.00 0.00 27 1028.8
20190122221330 60 324 0.0 4.0 0.00 0.00 0.00 28 1028.8
20190122220833 61 323 0.0 4.0 0.00 0.00 0.00 27 1028.8
20190122220321 60 324 0.0 4.0 0.00 0.00 0.00 26 1028.8
20190122215826 61 323 0.0 3.0 0.00 0.00 0.00 27 1028.8
20190122215331 61 323 0.0 0.0 0.00 0.00 0.00 28 1028.8
20190122214821 61 323 0.0 1.0 0.00 0.00 0.00 28 1029.0
20190122214332 60 323 0.0 1.0 0.00 0.00 0.00 26 1029.0
20190122213833 59 323 0.0 0.0 0.00 0.00 0.00 26 1029.0
20190122213336 60 323 0.0 1.0 0.00 0.00 0.00 27 1028.9
20190122212839 60 323 0.0 2.0 0.00 0.00 0.00 27 1028.9
20190122212321 59 323 0.0 3.0 0.00 0.00 0.00 26 1028.9
20190122211824 59 323 0.0 3.0 0.00 0.00 0.00 27 1029.1
20190122211333 59 321 0.0 1.0 0.00 0.00 0.00 28 1029.1
20190122210820 59 321 0.0 1.0 0.00 0.00 0.00 27 1029.1
20190122210329 59 321 0.0 3.0 0.00 0.00 0.00 28 1029.4
20190122205837 58 321 0.0 3.0 0.00 0.00 0.00 28 1029.4
20190122205325 58 321 0.0 0.0 0.00 0.00 0.00 28 1029.4
20190122204832 58 321 0.0 0.0 0.00 0.00 0.00 27 1029.4
20190122204324 58 321 0.0 4.0 0.00 0.00 0.00 28 1029.4
20190122203830 58 321 0.0 4.0 0.00 0.00 0.00 29 1029.4
20190122203328 58 321 0.0 3.0 0.00 0.00 0.00 28 1029.6
20190122202839 58 321 0.0 1.0 0.00 0.00 0.00 28 1029.6
20190122202328 58 321 0.0 0.0 0.00 0.00 0.00 29 1029.6
20190122201820 58 321 0.0 3.0 0.00 0.00 0.00 31 1030.0
20190122201331 57 321 0.0 5.0 0.00 0.00 0.00 28 1030.0
20190122200820 58 322 1.0 5.0 0.00 0.00 0.00 29 1030.0
20190122200321 58 333 0.0 4.0 0.00 0.00 0.00 31 1030.1
20190122195831 57 333 1.0 4.0 0.00 0.00 0.00 30 1030.1
20190122195332 57 38 0.0 4.0 0.00 0.00 0.00 31 1030.1
20190122194827 56 38 0.0 4.0 0.00 0.00 0.00 30 1030.3
20190122194326 56 41 0.0 3.0 0.00 0.00 0.00 32 1030.3
20190122193828 56 41 0.0 0.0 0.00 0.00 0.00 32 1030.3
20190122193335 56 41 0.0 2.0 0.00 0.00 0.00 34 1030.4
20190122192822 55 41 0.0 3.0 0.00 0.00 0.00 32 1030.4
20190122192328 55 41 0.0 3.0 0.00 0.00 0.00 34 1030.4
20190122191822 55 41 0.0 1.0 0.00 0.00 0.00 32 1030.5
20190122191326 55 41 0.0 2.0 0.00 0.00 0.00 36 1030.5
20190122190827 54 41 0.0 4.0 0.00 0.00 0.00 40 1030.5
20190122190329 53 41 2.0 4.0 0.00 0.00 0.00 42 1030.4
20190122185832 53 42 0.0 4.0 0.00 0.00 0.00 47 1030.4
20190122185338 51 42 1.0 4.0 0.00 0.00 0.00 51 1030.4
20190122184839 51 330 0.0 3.0 0.00 0.00 0.00 52 1030.7
20190122184320 50 330 0.0 3.0 0.00 0.00 0.00 57 1030.7
20190122183839 49 330 0.0 0.0 0.00 0.00 0.00 59 1030.7
20190122183321 49 330 0.0 4.0 0.00 0.00 0.00 59 1030.5
20190122182825 48 330 1.0 4.0 0.00 0.00 0.00 66 1030.5
20190122182330 47 330 0.0 0.0 0.00 0.00 0.00 71 1030.5
20190122181837 46 330 0.0 2.0 0.00 0.00 0.00 72 1030.9
20190122181322 45 330 0.0 4.0 0.00 0.00 0.00 75 1030.9
20190122180833 45 330 1.0 4.0 0.00 0.00 0.00 81 1030.9
20190122180335 44 331 1.0 2.0 0.00 0.00 0.00 87 1030.4
20190122175820 43 331 0.0 0.0 0.00 0.00 0.00 90 1030.4
20190122175330 43 331 0.0 0.0 0.00 0.00 0.00 91 1030.4
20190122174832 43 331 0.0 0.0 0.00 0.00 0.00 92 1030.3
20190122174327 43 331 0.0 0.0 0.00 0.00 0.00 93 1030.3
20190122173833 43 331 0.0 0.0 0.00 0.00 0.00 94 1030.3
20190122173324 42 331 0.0 0.0 0.00 0.00 0.00 95 1030.1
20190122172829 42 331 0.0 0.0 0.00 0.00 0.00 95 1030.1
20190122172329 42 331 0.0 0.0 0.00 0.00 0.00 96 1030.1
20190122171817 41 331 0.0 0.0 0.00 0.00 0.00 96 1029.9
20190122171327 41 331 0.0 0.0 0.00 0.00 0.00 96 1029.9
20190122170834 41 331 0.0 0.0 0.00 0.00 0.00 96 1029.9
20190122170338 41 331 0.0 0.0 0.00 0.00 0.00 97 1029.4
20190122165828 41 331 0.0 0.0 0.00 0.00 0.00 97 1029.4
20190122074831 40 331 0.0 0.0 0.00 0.00 0.00 93 1027.6
20190122074327 40 331 0.0 0.0 0.00 0.00 0.00 93 1027.6
20190122073829 40 331 0.0 0.0 0.00 0.00 0.00 93 1027.6
20190122073335 40 331 0.0 0.0 0.00 0.00 0.00 93 1027.3
20190122072829 40 331 0.0 0.0 0.00 0.00 0.00 93 1027.3
20190122072335 40 331 0.0 0.0 0.00 0.00 0.00 92 1027.3
20190122071821 40 331 0.0 0.0 0.00 0.00 0.00 92 1027.2
20190122071327 41 331 0.0 0.0 0.00 0.00 0.00 92 1027.2
20190122070816 41 331 0.0 0.0 0.00 0.00 0.00 92 1027.2
20190122070329 41 331 0.0 0.0 0.00 0.00 0.00 92 1027.3
20190122065835 41 331 0.0 0.0 0.00 0.00 0.00 92 1027.3
20190122065322 41 331 0.0 0.0 0.00 0.00 0.00 92 1027.3
20190122064825 41 331 0.0 0.0 0.00 0.00 0.00 92 1027.3
20190122064330 41 331 0.0 0.0 0.00 0.00 0.00 92 1027.3
20190122063838 41 331 0.0 0.0 0.00 0.00 0.00 92 1027.3
20190122063326 41 331 0.0 0.0 0.00 0.00 0.00 91 1027.3
20190122062819 41 331 0.0 0.0 0.00 0.00 0.00 91 1027.3
20190122062324 41 331 0.0 0.0 0.00 0.00 0.00 91 1027.3
20190122061826 41 331 0.0 0.0 0.00 0.00 0.00 91 1027.1
20190122061333 41 331 0.0 0.0 0.00 0.00 0.00 91 1027.1
20190122060820 42 331 0.0 0.0 0.00 0.00 0.00 90 1027.1
20190122060327 42 331 0.0 0.0 0.00 0.00 0.00 91 1026.9
20190122055832 42 331 0.0 0.0 0.00 0.00 0.00 90 1026.9
20190122055333 42 331 0.0 0.0 0.00 0.00 0.00 90 1026.9
20190122054835 42 331 0.0 0.0 0.00 0.00 0.00 90 1026.8
20190122054325 42 331 0.0 0.0 0.00 0.00 0.00 90 1026.8
20190122053830 42 331 0.0 0.0 0.00 0.00 0.00 89 1026.8
20190122053333 42 331 0.0 0.0 0.00 0.00 0.00 89 1026.8
20190122052819 42 331 0.0 0.0 0.00 0.00 0.00 89 1026.8
20190122052324 42 331 0.0 0.0 0.00 0.00 0.00 89 1026.8
20190122051832 42 331 0.0 0.0 0.00 0.00 0.00 89 1026.8
20190122051339 43 331 0.0 0.0 0.00 0.00 0.00 88 1026.8
20190122050820 43 331 0.0 0.0 0.00 0.00 0.00 88 1026.8
20190122050331 43 331 0.0 0.0 0.00 0.01 0.00 88 1026.8
20190122045822 43 331 0.0 0.0 0.00 0.01 0.00 88 1026.8
20190122045331 43 331 0.0 0.0 0.00 0.01 0.00 87 1026.8
20190122044819 43 331 0.0 0.0 0.00 0.01 0.00 87 1026.7
20190122044319 43 331 0.0 0.0 0.00 0.01 0.00 87 1026.7
20190122043833 43 331 0.0 0.0 0.00 0.01 0.00 87 1026.7
20190122043337 44 331 0.0 0.0 0.00 0.01 0.00 86 1026.4
20190122042820 44 331 0.0 0.0 0.00 0.01 0.00 86 1026.4
20190122042325 44 331 0.0 0.0 0.00 0.01 0.00 86 1026.4
20190122041833 44 331 0.0 0.0 0.00 0.01 0.00 85 1026.3